Location: Street
(51.1247°N, 2.7429°W)
Time: 13:36:24
(UTC+01:00)

CUTE 1.7 + AOD 2 - Visible Passes

Search period start: 28 March 2023 00:00
Search period end: 07 April 2023 00:00
Orbit: 584 x 602 km, 97.7° (Epoch: 27 March)

Date Brightness Start Highest point End Pass type
(mag) Time Alt. Az. Time Alt. Az. Time Alt. Az.
28 Mar ? 04:13:13 10° NNE 04:16:56 29° E 04:19:25 17° SE visible
28 Mar ? 05:48:44 10° N 05:52:33 34° WNW 05:56:02 12° SW visible
29 Mar ? 04:22:04 10° NNE 04:25:58 35° E 04:28:39 17° SSE visible
29 Mar ? 05:57:50 10° N 06:01:28 29° WNW 06:05:06 10° SW visible
30 Mar ? 04:30:56 10° NNE 04:34:58 43° E 04:37:52 17° SSE visible
30 Mar ? 06:06:56 10° N 06:10:22 24° WNW 06:13:47 10° WSW visible
31 Mar ? 04:39:49 10° NNE 04:43:58 53° E 04:47:03 17° S visible
31 Mar ? 06:16:05 10° NNW 06:19:14 21° WNW 06:22:23 10° WSW visible
01 Apr ? 04:48:43 10° NNE 04:52:55 65° ESE 04:56:14 16° S visible
02 Apr ? 04:57:37 10° NNE 05:01:52 80° ESE 05:05:24 14° S visible
03 Apr ? 03:32:49 10° ENE 03:34:35 12° E 03:36:22 10° ESE visible
03 Apr ? 05:06:32 10° NNE 05:10:46 84° WNW 05:14:34 13° SSW visible
04 Apr ? 03:41:08 10° NE 03:43:36 15° E 03:46:03 10° SE visible
04 Apr ? 05:15:27 10° N 05:19:40 69° WNW 05:23:42 11° SSW visible
05 Apr ? 03:49:39 10° NE 03:52:36 18° E 03:55:31 10° SE visible
05 Apr ? 05:24:23 10° N 05:28:32 57° WNW 05:32:40 10° SSW visible
06 Apr ? 03:58:16 10° NE 04:01:34 22° E 04:04:51 10° SE visible
06 Apr ? 05:33:19 10° N 05:37:22 47° WNW 05:41:26 10° SW visible
